User: anonymous   Login
Location: Unspecified
(0.0000°N, 0.0000°E)
Time: 22:46:30
(UTC+02:00)
Language:

Cosmos 1733 Rocket - Orbit

View from above orbital plane
View from above orbital plane
View from above satellite
View from above satellite

Ground track
Ground track

The orbit data is extracted from the following two-line orbital elements,

1 16612U 86018B   18115.78210182  .00000073  00000-0  58823-5 0  9995
2 16612  82.5189   3.1452 0017168 196.6123 205.7789 14.84191918637827
Epoch (UTC): 25 April 2018 18:46:13
Eccentricity: 0.0017168
inclination: 82.5189°
perigee height: 604 km
apogee height: 628 km
right ascension of ascending node: 3.1452°
argument of perigee: 196.6123°
revolutions per day: 14.84191918
mean anomaly at epoch: 205.7789°
orbit number at epoch: 63782

The dashed part of the orbit path shows where the satellite is in the earth's shadow,  

DLR